Theta_e
343 346 345 346 346 347 348 352 351 352 354 354 350 348 349 348 348 349 348 348 349 347 350 347 348 350 350 351 354 351 352 355 352
347 347 347 348 349 349 350 350 353 354 354 353 350 348 349 351 349 349 352 348 350 352 350 351 350 350 338 349 351 353 353 355 353
348 345 346 348 350 349 350 349 355 355 354 353 351 349 349 353 351 351 352 350 349 348 348 348 351 348 349 344 346 355 354 353 354
345 346 347 348 349 350 352 349 351 356 356 355 354 354 352 351 350 349 348 349 349 352 351 351 350 352 353 352 353 351 352 353 352
344 345 344 347 349 350 351 351 351 354 355 356 354 353 354 353 350 350 351 351 346 347 350 349 347 347 348 350 354 353 353 352 351
345 344 346 349 349 351 352 352 351 353 352 351 352 355 356 354 353 354 354 355 353 347 345 346 347 347 347 345 345 353 356 354 353
349 341 346 348 350 351 351 353 352 353 353 351 351 352 353 355 354 354 354 354 355 354 352 351 350 351 351 351 351 349 353 356 355
340 344 341 350 352 353 353 357 355 354 353 353 352 351 353 352 354 354 353 353 353 354 356 354 351 351 354 353 352 352 353 349 353
338 341 345 349 353 354 358 359 359 357 355 354 354 355 352 352 351 352 354 354 354 353 354 354 355 354 352 354 354 355 355 354 352
340 341 345 349 351 353 354 359 359 359 357 356 356 355 355 357 356 355 354 354 354 353 353 355 356 356 356 356 357 357 357 356 354
345 343 340 342 351 354 355 357 357 356 357 357 357 359 359 357 361 361 362 361 360 360 359 358 357 357 355 355 353 355 356 355 356
336 336 336 337 350 354 356 359 360 360 361 360 360 360 361 360 360 361 360 359 359 359 359 359 357 355 354 354 354 355 356 356 355
333 333 339 338 347 355 358 360 362 363 364 364 363 363 361 361 361 361 358 355 354 354 350 347 347 347 348 347 347 349 352 352 354
335 340 339 341 342 357 359 361 363 364 364 363 361 361 362 357 354 352 350 348 346 344 344 343 341 341 342 343 343 343 344 348 348
337 333 339 337 341 362 363 364 364 364 363 363 361 357 351 349 348 344 344 343 338 337 338 337 334 334 335 336 337 340 342 342 345
335 336 339 333 350 364 364 363 363 356 353 353 350 349 346 344 343 338 336 336 336 334 330 329 329 329 330 330 330 332 334 340 341
339 350 353 359 359 359 359 360 357 352 349 347 346 345 344 342 340 340 339 335 334 331 328 327 326 325 324 323 323 324 326 331 334
352 356 359 358 356 355 353 352 349 348 346 346 345 343 342 342 340 335 333 333 333 331 328 326 326 324 323 321 321 322 323 323 328
353 355 357 356 354 352 350 349 348 346 345 344 342 343 341 338 338 338 334 335 332 330 329 327 326 326 325 324 323 323 323 324 325
352 355 355 353 352 351 348 347 346 345 344 342 340 339 339 339 338 338 339 335 332 330 327 327 326 325 325 325 325 324 324 325 326
Wind_Speed
15 9 14 17 15 23 24 33 34 31 32 31 30 30 28 24 22 16 17 13 15 17 15 16 15 15 13 11 10 9 8 9 6
12 11 17 16 18 25 23 28 34 33 32 31 32 29 28 23 22 20 17 17 13 16 15 7 12 10 10 11 10 8 9 10 8
12 10 14 15 16 24 25 29 31 35 34 33 31 28 29 25 25 23 21 17 14 14 11 10 11 8 7 10 11 8 11 12 11
8 9 15 16 14 25 26 31 30 32 32 30 28 26 26 27 26 25 24 24 21 13 14 11 7 8 10 10 10 12 13 14 14
9 10 10 13 13 21 23 27 30 32 31 28 26 24 25 25 25 23 23 23 24 22 18 18 19 17 15 13 14 16 17 17 16
4 10 9 13 10 13 21 24 28 30 31 29 26 23 23 26 27 26 26 25 23 22 25 23 22 20 21 21 20 19 20 19 19
6 5 4 10 10 11 22 25 29 30 30 29 26 25 25 25 28 27 26 25 22 23 23 23 23 23 23 22 21 22 21 21 22
18 16 8 9 11 8 18 23 27 31 32 30 29 28 29 30 27 27 27 26 24 24 23 25 24 24 24 24 24 24 24 25 25
15 9 8 9 11 11 14 22 26 30 33 33 30 28 31 29 28 28 29 28 25 24 23 24 22 24 24 24 24 25 23 24 25
7 5 10 11 11 13 18 25 31 31 33 31 29 29 25 20 23 26 27 24 23 24 23 20 20 20 21 23 24 25 26 25 25
6 8 11 19 13 20 26 30 31 31 30 29 28 23 22 22 16 16 13 13 14 16 18 20 20 20 21 21 25 25 26 25 25
7 7 17 21 23 29 28 32 34 31 27 25 23 20 16 14 14 12 11 14 14 13 13 15 13 15 16 17 20 21 22 24 24
11 18 33 34 39 30 30 29 32 30 27 24 19 16 15 13 13 14 10 9 6 6 1 6 9 12 14 16 20 20 20 22 24
21 19 27 21 25 29 28 29 29 24 26 22 18 17 17 15 15 11 7 4 2 1 3 7 10 12 14 17 18 22 22 22 22
13 17 23 9 29 19 31 34 32 26 23 24 25 26 23 18 13 9 6 2 3 5 6 9 12 15 17 17 17 15 13 16 17
11 20 30 30 49 23 27 34 35 28 27 30 27 23 19 15 11 8 9 11 11 9 7 8 9 11 14 17 18 21 18 14 15
11 8 18 20 25 22 20 27 30 31 25 22 24 23 20 16 14 13 11 12 10 7 8 9 10 11 14 18 20 20 18 17 14
7 7 10 15 18 18 22 28 26 25 24 24 23 20 19 17 18 18 17 13 10 6 7 10 12 11 12 15 19 19 17 20 21
5 12 18 16 22 23 24 25 23 20 20 21 21 22 21 21 21 19 18 15 13 7 3 9 12 13 13 14 14 16 16 17 18
21 14 20 21 21 29 27 23 22 20 20 19 20 21 20 19 20 17 17 18 15 12 7 5 7 9 14 10 13 13 13 13 11
Wind_Direction
208 200 169 169 161 157 160 164 177 176 180 187 192 196 198 207 211 213 224 234 216 227 238 249 253 253 241 242 250 264 258 248 278
142 141 156 155 146 154 157 153 171 173 180 189 192 197 198 206 210 208 211 224 229 238 237 261 227 222 242 227 245 246 263 255 256
122 142 146 145 147 160 164 166 160 174 180 187 194 198 199 203 209 214 214 221 234 247 252 238 230 239 256 248 246 239 244 247 257
140 136 138 149 155 162 162 161 162 170 179 183 189 193 201 208 215 220 226 229 234 232 240 229 222 223 229 244 258 258 253 257 269
148 136 145 153 154 158 157 164 166 171 175 183 192 197 203 209 215 214 219 228 235 235 240 248 249 251 248 246 249 256 257 260 261
120 155 141 143 141 150 159 163 169 173 181 188 193 195 202 208 211 215 219 228 232 237 239 247 251 254 255 257 255 255 257 262 262
48 312 172 147 159 158 156 165 173 178 182 190 191 196 206 207 210 215 220 228 234 242 239 243 247 250 252 254 257 255 257 260 259
168 235 297 150 163 162 160 162 176 182 188 191 195 198 205 209 215 221 224 229 234 240 246 245 247 251 253 254 256 260 260 260 260
178 199 228 176 165 167 160 169 175 182 189 193 196 202 209 212 217 221 222 225 228 235 245 246 246 248 253 258 259 261 261 262 263
29 358 309 167 175 179 178 177 181 184 190 194 198 206 212 214 218 221 222 225 231 239 243 244 246 253 256 261 264 266 263 263 266
81 357 343 319 177 185 188 188 191 194 193 195 200 205 212 214 213 209 208 215 228 241 246 248 254 259 260 263 267 271 273 275 270
93 16 315 308 237 188 185 184 188 186 186 191 197 200 197 201 210 205 217 230 236 245 254 245 246 260 271 275 276 277 277 276 276
112 115 269 281 236 182 181 181 176 172 173 174 174 178 185 189 195 210 175 138 135 156 321 319 303 289 282 285 286 287 287 277 270
151 201 203 279 290 173 171 169 163 148 156 162 173 185 178 156 132 127 127 138 74 1 334 323 326 319 311 302 293 292 288 283 276
81 32 341 60 280 142 149 151 148 144 150 166 168 151 140 137 137 135 131 110 28 39 26 355 336 325 315 305 300 310 313 306 295
140 162 216 205 198 126 136 144 150 134 136 141 141 141 139 135 138 131 116 104 95 90 44 18 351 335 321 316 313 303 306 308 293
248 214 176 150 124 120 106 137 141 141 146 148 142 139 140 142 139 135 140 126 130 112 60 36 12 350 335 328 324 319 307 303 311
122 100 126 121 115 105 109 126 130 142 149 150 147 147 149 153 153 149 145 140 142 117 66 43 21 4 343 329 320 325 320 308 294
181 148 153 129 122 108 116 126 137 146 153 156 156 159 165 166 170 173 167 158 147 138 86 57 36 22 358 338 323 324 318 318 302
288 177 152 136 137 136 138 140 149 159 164 166 167 170 179 181 181 168 165 175 162 175 171 95 47 37 24 10 10 354 329 319 324